[[{"header":{"parameterUnit":"m.s-1","parameterCategory":1,"la1":30.2991,"la2":30.254,"lo1":-89.0895,"lo2":-89.0444,"dy":0.0017,"dx":0.0017,"nx":28,"ny":28,"refTime":"2025-09-01T21:00:00:Z","depth":0,"parameterNumber":2,"parameterNumberName":"U-component_of_WINDS"},"data":[0,0,0,0,0,0,0,0,0,0,0,0,0,0,0,0,0,0,0,0,0,0,0,0,0,0,0,0,0,0,0,0,0,0,0,0,0,0,0,0,0,0,0,0,0,0,0,0,0,0,0,0,0,0,0,0,0,0,-1.1711,-1.1711,0,-1.1761,-1.1762,-1.1762,-1.173,-1.1728,-1.1727,-1.1726,-1.178,-1.1783,-1.1786,0,0,0,0,0,0,0,0,0,0,0,0,0,-1.1588,-1.1591,-1.1711,-1.1711,-1.1712,-1.1761,-1.1762,-1.1762,-1.173,-1.1728,-1.1727,-1.1725,-1.1779,-1.1783,-1.1786,0,0,0,0,0,0,0,0,0,0,0,0,0,-1.1641,-1.1592,-1.171,-1.1702,-1.1701,-1.1761,-1.1762,-1.1763,-1.1731,-1.1728,-1.1726,-1.1724,-1.1778,-1.1782,-1.1786,-1.1858,0,0,-1.18,-1.1801,0,0,0,0,0,0,0,0,-1.1638,-1.1645,-1.1702,-1.1702,-1.1702,-1.1737,-1.1739,-1.1795,-1.1731,-1.172,-1.1725,-1.1723,-1.1768,-1.1773,-1.1787,-1.1861,-1.1863,-1.18,-1.1803,-1.1804,-1.1806,0,0,0,0,0,0,0,-1.1634,-1.1643,-1.1731,-1.1703,-1.1703,-1.1696,-1.1701,-1.1749,-1.1756,-1.172,-1.1718,-1.1724,-1.1767,-1.1783,-1.1788,-1.1864,-1.18,-1.1804,-1.1806,-1.1808,-1.1999,-1.2002,0,0,0,0,0,0,-1.1631,-1.164,-1.1729,-1.1732,-1.1664,-1.17,-1.1705,-1.1728,-1.1755,-1.1757,-1.1726,-1.1723,-1.1777,-1.1783,-1.179,-1.1877,-1.1804,-1.1808,-1.1811,-1.1997,-1.2,-1.2002,0,0,0,0,0,0,-1.1628,-1.1639,-1.1727,-1.1685,-1.1696,-1.1704,-1.173,-1.173,-1.1746,-1.176,-1.1761,-1.1741,-1.1775,-1.1784,-1.1841,-1.1878,-1.181,-1.1814,-1.1994,-1.1998,-1.2001,-1.205,0,0,0,0,0,0,-1.1625,-1.1638,-1.1665,-1.1686,-1.1698,-1.1777,-1.1732,-1.1733,-1.1753,-1.1749,-1.1774,-1.1776,-1.1774,-1.1835,-1.1846,-1.1883,-1.1818,-1.1991,-1.1995,-1.2,-1.2045,-1.2055,-1.2063,0,0,0,0,0,-1.1621,-1.1678,-1.1667,-1.1678,-1.1732,-1.1779,-1.1786,-1.1782,-1.1756,-1.1784,-1.1792,-1.1775,-1.1872,-1.1841,-1.1853,-1.1892,-1.1988,-1.1994,-1.1999,-1.2041,-1.2053,-1.2063,0,0,0,0,0,0,-1.1663,-1.168,-1.1669,-1.1734,-1.1755,-1.1774,-1.1809,-1.1795,-1.1825,-1.182,-1.1814,-1.182,-1.188,-1.1891,-1.1857,-1.1963,-1.1926,-1.1934,-1.1954,-1.1965,-1.1974,-1.1971,-1.1821,0,0,0,0,0,-1.1679,-1.1715,-1.1729,-1.1785,-1.1796,-1.1801,-1.1821,-1.1816,-1.1838,-1.1847,-1.186,-1.1883,-1.1918,-1.1942,-1.1975,-1.2046,-1.2051,-1.2078,-1.2087,-1.2094,-1.2102,-1.2141,-1.2153,-1.2021,-1.2021,-1.2021,0,0,-1.1714,-1.1728,-1.1752,-1.1794,-1.181,-1.1848,-1.1809,-1.1851,-1.1879,-1.1854,-1.1909,-1.1919,-1.1944,-1.2008,-1.2037,-1.2019,-1.2139,-1.2101,-1.2107,-1.2111,-1.2148,-1.216,-1.2171,-1.2025,-1.2024,-1.2023,0,0,-1.1798,-1.1812,-1.1861,-1.1877,-1.1901,-1.1903,-1.1914,-1.1935,-1.194,-1.1995,-1.1977,-1.201,-1.2072,-1.209,-1.2108,-1.2197,-1.2183,-1.2208,-1.2256,-1.2294,-1.2304,-1.2313,-1.2346,-1.2358,-1.2215,-1.2215,-1.2215,0,-1.184,-1.1895,-1.1888,-1.1931,-1.195,-1.1927,-1.1977,-1.1993,-1.2028,-1.2042,-1.2021,-1.2096,-1.2112,-1.218,-1.2202,-1.2216,-1.223,-1.2206,-1.2303,-1.2312,-1.2321,-1.2352,-1.2364,-1.2218,-1.2218,-1.2218,-1.2217,0,-1.1945,-1.1984,-1.2021,-1.2053,-1.2076,-1.2122,-1.2122,-1.2147,-1.2139,-1.2144,-1.22,-1.2217,-1.2253,-1.2268,-1.2262,-1.2336,-1.2324,-1.2303,-1.2267,-1.2336,-1.2366,-1.2378,-1.2223,-1.2222,-1.2221,-1.222,0,0,-1.206,-1.2085,-1.2099,-1.2113,-1.2137,-1.2168,-1.2212,-1.2247,-1.2269,-1.2292,-1.2331,-1.2382,-1.2362,-1.2382,-1.2377,-1.241,-1.248,-1.2385,-1.2385,-1.2403,-1.2564,-1.2581,-1.2595,-1.247,-1.2472,-1.2474,-1.2563,0,-1.2146,-1.2224,-1.2217,-1.2292,-1.2328,-1.2306,-1.2345,-1.2364,-1.2369,-1.2401,-1.2406,-1.2444,-1.2414,-1.2426,-1.2457,-1.2465,-1.2513,-1.2458,-1.2507,-1.2509,-1.2503,-1.2611,-1.2629,-1.2712,-1.2574,-1.2576,-1.2577,0,-1.2258,-1.2284,-1.2362,-1.2379,-1.2394,-1.243,-1.2461,-1.2491,-1.2512,-1.2513,-1.2535,-1.2524,-1.257,-1.253,-1.2594,-1.2557,-1.2576,-1.2583,-1.2586,-1.2592,-1.2549,-1.2621,-1.2738,-1.2752,-1.2595,-1.2594,-1.2592,0,-1.2335,-1.239,-1.2443,-1.2456,-1.2477,-1.2503,-1.2513,-1.2532,-1.2553,-1.258,-1.2594,-1.2626,-1.2644,-1.2669,-1.2668,-1.2639,-1.2733,-1.2693,-1.2736,-1.2737,-1.2759,-1.2758,-1.2883,-1.2768,-1.2768,-1.2768,-1.2768,0,-1.2433,-1.2482,-1.2478,-1.2511,-1.2565,-1.2557,-1.261,-1.2618,-1.2634,-1.2669,-1.2651,-1.2685,-1.2679,-1.2713,-1.2712,-1.2765,-1.2773,-1.2776,-1.2776,-1.2779,-1.2779,-1.2793,-1.2788,-1.2771,-1.2771,-1.277,-1.2769,0,-1.253,-1.2529,-1.2586,-1.2601,-1.2606,-1.2645,-1.2658,-1.269,-1.2692,-1.2736,-1.2746,-1.2751,-1.2789,-1.2789,-1.2833,-1.2832,-1.2898,-1.289,-1.2891,-1.289,-1.2934,-1.293,-1.3074,-1.3092,-1.2964,-1.2965,-1.2966,0,-1.2594,-1.263,-1.2649,-1.267,-1.2682,-1.2717,-1.2737,-1.273,-1.2753,-1.2779,-1.2808,-1.2844,-1.2873,-1.2935,-1.2942,-1.2976,-1.297,-1.3017,-1.2975,-1.2977,-1.2972,-1.2971,-1.2975,-1.3027,-1.3028,-1.3029,-1.303,0,-1.2708,-1.2705,-1.2735,-1.2765,-1.279,-1.2814,-1.2835,-1.2854,-1.2849,-1.2875,-1.2913,-1.2936,-1.2979,-1.3016,-1.3048,-1.3059,-1.3045,-1.3043,-1.3055,-1.306,-1.306,-1.3062,-1.2916,-1.304,-1.3039,-1.3039,-1.3038,-1.3038,-1.2791,-1.2822,-1.284,-1.2874,-1.2889,-1.291,-1.294,-1.2946,-1.2977,-1.3012,-1.3005,-1.3048,-1.3068,-1.3109,-1.3123,-1.3157,-1.314,-1.3157,-1.3162,-1.3167,-1.3172,-1.3052,-1.3162,-1.3162,-1.3162,-1.3161,-1.3161,0,-1.2905,-1.2915,-1.2946,-1.2976,-1.3003,-1.2985,-1.3007,-1.3032,-1.3069,-1.3088,-1.3116,-1.316,-1.3195,-1.3204,-1.3238,-1.3264,-1.3258,-1.3273,-1.3272,-1.3275,-1.3185,-1.3172,-1.3277,-1.3277,-1.3277,-1.3277,-1.3277,-1.3277,-1.2968,-1.3021,-1.302,-1.308,-1.3089,-1.313,-1.3145,-1.3164,-1.3179,-1.3228,-1.3257,-1.3262,-1.3277,-1.3312,-1.3343,-1.3345,-1.3359,-1.3378,-1.3377,-1.3293,-1.3281,-1.327,-1.3258,-1.338,-1.338,-1.3465,-1.3466,-1.3466]},{"header":{"parameterUnit":"m.s-1","parameterCategory":1,"la1":30.2991,"la2":30.254,"lo1":-89.0895,"lo2":-89.0444,"dy":0.0017,"dx":0.0017,"nx":28,"ny":28,"refTime":"2025-09-01T21:00:00:Z","depth":0,"parameterNumber":3,"parameterNumberName":"V-component_of_WINDS"},"data":[0,0,0,0,0,0,0,0,0,0,0,0,0,0,0,0,0,0,0,0,0,0,0,0,0,0,0,0,0,0,0,0,0,0,0,0,0,0,0,0,0,0,0,0,0,0,0,0,0,0,0,0,0,0,0,0,0,0,1.7378,1.7378,0,1.7349,1.7348,1.7348,1.7288,1.7287,1.7286,1.7285,1.7254,1.7255,1.7255,0,0,0,0,0,0,0,0,0,0,0,0,0,1.7382,1.7382,1.7378,1.7378,1.7377,1.7349,1.7348,1.7348,1.7288,1.7287,1.7285,1.7284,1.7254,1.7255,1.7255,0,0,0,0,0,0,0,0,0,0,0,0,0,1.7369,1.7382,1.7378,1.7344,1.7341,1.7349,1.7348,1.7348,1.7289,1.7287,1.7285,1.7283,1.7254,1.7255,1.7255,1.7294,0,0,1.7257,1.7257,0,0,0,0,0,0,0,0,1.737,1.7369,1.735,1.7347,1.7343,1.732,1.7338,1.733,1.7289,1.7309,1.7285,1.7283,1.7278,1.7276,1.7275,1.7292,1.7291,1.7257,1.7257,1.7257,1.7257,0,0,0,0,0,0,0,1.7371,1.737,1.7366,1.7349,1.7345,1.733,1.7326,1.7336,1.7304,1.7307,1.7302,1.73,1.7276,1.7274,1.7273,1.7291,1.7257,1.7257,1.7257,1.7257,1.7336,1.7338,0,0,0,0,0,0,1.7377,1.7371,1.7367,1.7366,1.7352,1.7331,1.7327,1.7329,1.7303,1.7298,1.7301,1.7297,1.7274,1.7273,1.7272,1.7314,1.7257,1.7257,1.7258,1.7334,1.7337,1.7339,0,0,0,0,0,0,1.7377,1.7377,1.7369,1.7367,1.7365,1.7333,1.7336,1.733,1.7328,1.7299,1.7293,1.7306,1.7273,1.7272,1.7288,1.7312,1.7258,1.7258,1.7332,1.7335,1.7338,1.7399,0,0,0,0,0,0,1.7377,1.7377,1.7392,1.7368,1.7365,1.7386,1.7338,1.733,1.7329,1.7323,1.7302,1.7297,1.7271,1.7288,1.7289,1.7312,1.7258,1.733,1.7333,1.7337,1.7395,1.7403,1.7411,0,0,0,0,0,1.7378,1.7411,1.7393,1.7393,1.7383,1.7387,1.7386,1.7356,1.7332,1.7345,1.7327,1.7297,1.731,1.729,1.7291,1.7314,1.7328,1.7332,1.7336,1.7391,1.7402,1.7411,0,0,0,0,0,0,1.7439,1.7407,1.7387,1.7413,1.7404,1.7377,1.7394,1.7369,1.7365,1.736,1.7323,1.7319,1.734,1.7329,1.7308,1.7349,1.7314,1.7319,1.7355,1.7365,1.7373,1.7375,1.7259,0,0,0,0,0,1.7456,1.7462,1.7434,1.746,1.7456,1.7426,1.7427,1.7405,1.7393,1.7388,1.7371,1.736,1.7361,1.7363,1.7363,1.7393,1.7386,1.7409,1.7417,1.7424,1.7428,1.7441,1.745,1.7352,1.7352,1.7352,0,0,1.749,1.7473,1.748,1.7472,1.7461,1.7468,1.7423,1.7433,1.7437,1.739,1.7404,1.7391,1.7376,1.74,1.7409,1.7391,1.7454,1.7429,1.7435,1.7435,1.7446,1.7456,1.7464,1.7355,1.7354,1.7354,0,0,1.7555,1.7544,1.7564,1.7554,1.7539,1.7519,1.7524,1.7501,1.749,1.7504,1.7468,1.7473,1.7476,1.7467,1.7463,1.7524,1.7496,1.7525,1.7567,1.758,1.7588,1.7595,1.7615,1.7623,1.7529,1.7529,1.7529,0,1.76,1.7609,1.7577,1.7588,1.7585,1.7543,1.7562,1.7554,1.754,1.7538,1.7518,1.752,1.7508,1.7528,1.7542,1.7541,1.7544,1.7527,1.759,1.7596,1.7602,1.762,1.7628,1.7533,1.7532,1.7532,1.7532,0,1.7663,1.767,1.7688,1.7674,1.7674,1.7689,1.7659,1.7661,1.764,1.7621,1.7635,1.7619,1.7613,1.7616,1.7596,1.7633,1.7622,1.7596,1.756,1.7615,1.7632,1.7639,1.7538,1.7536,1.7535,1.7534,0,0,1.7767,1.7735,1.7742,1.7734,1.7714,1.7718,1.7731,1.7726,1.7728,1.772,1.7729,1.7732,1.7708,1.7703,1.7681,1.7693,1.774,1.7665,1.7664,1.7678,1.7778,1.7796,1.7805,1.7722,1.7723,1.7724,1.7778,0,1.7826,1.7846,1.7818,1.7844,1.7849,1.7808,1.7819,1.7808,1.7791,1.7792,1.7774,1.7776,1.7745,1.7742,1.7752,1.7732,1.7759,1.7728,1.7728,1.7729,1.7732,1.7814,1.7833,1.7885,1.7785,1.7786,1.7787,0,1.7899,1.7893,1.792,1.7896,1.7897,1.7908,1.79,1.7902,1.7888,1.7874,1.7869,1.7842,1.7852,1.7818,1.783,1.781,1.7808,1.7799,1.78,1.7798,1.776,1.7812,1.7901,1.7908,1.7797,1.7796,1.7796,0,1.7969,1.7968,1.7983,1.7979,1.7952,1.796,1.795,1.7934,1.7932,1.7925,1.7923,1.7918,1.7914,1.791,1.7882,1.786,1.7897,1.7861,1.7885,1.7886,1.7894,1.7893,1.7982,1.7896,1.7896,1.7896,1.7895,0,1.8038,1.8055,1.8014,1.8024,1.8041,1.8008,1.8027,1.8012,1.7998,1.8003,1.7968,1.7974,1.7937,1.7938,1.7916,1.7929,1.7928,1.7916,1.791,1.7919,1.792,1.7916,1.7911,1.7898,1.7897,1.7897,1.7896,0,1.8119,1.8092,1.8106,1.808,1.8073,1.8088,1.8065,1.8072,1.8053,1.806,1.8059,1.8029,1.8028,1.8,1.7994,1.7979,1.8,1.7988,1.8005,1.8,1.8025,1.8023,1.8113,1.8123,1.8032,1.8033,1.8034,0,1.8163,1.8176,1.8151,1.8152,1.8142,1.8145,1.8142,1.811,1.8109,1.8093,1.8102,1.8098,1.8093,1.8094,1.8071,1.8066,1.8052,1.8084,1.8051,1.8059,1.8051,1.805,1.805,1.8091,1.8092,1.8093,1.8094,0,1.8245,1.8231,1.8229,1.8223,1.8221,1.8214,1.8205,1.8208,1.8172,1.8173,1.8171,1.8168,1.8161,1.8157,1.8148,1.8136,1.8109,1.8105,1.811,1.8118,1.8126,1.812,1.8022,1.8103,1.8102,1.8101,1.8101,1.81,1.8308,1.8316,1.83,1.8298,1.8288,1.828,1.8285,1.8266,1.8265,1.8257,1.8238,1.8239,1.8223,1.8207,1.8198,1.8198,1.8181,1.8189,1.8191,1.8193,1.8197,1.8128,1.8196,1.8196,1.8196,1.8195,1.8195,0,1.8386,1.8374,1.8373,1.8361,1.836,1.8335,1.8323,1.8323,1.8325,1.8313,1.8309,1.8307,1.8303,1.8279,1.8273,1.8277,1.8264,1.8276,1.8275,1.8272,1.8213,1.8208,1.8287,1.8287,1.8287,1.8287,1.8287,1.8287,1.8427,1.8439,1.8423,1.843,1.8417,1.8418,1.8413,1.8405,1.8395,1.8394,1.8391,1.8376,1.8358,1.835,1.8345,1.8338,1.8336,1.8352,1.8341,1.8285,1.8277,1.8268,1.8264,1.8352,1.8353,1.84,1.84,1.8401]}]]